Location: *
(52.2090°N, 4.1550°W)
Time: 03:05:12
(UTC+00:00)

ATLAS 5 CENTAUR R/B - Pass Details

Date: 19 July 2019
Orbit: 569 x 1090 km, 63.4° (Epoch: 06 August)

Event Time Altitude Azimuth Distance (km) Brightness Sun altitude
Rises 21:15:21 0° 298° (WNW) 3,050 6.8 -6.4°
Reaches altitude 10° 21:17:56 10° 312° (NW) 2,214 6.2 -6.7°
Maximum altitude 21:22:09 25° 8° (N) 1,537 4.1 -7.1°
Drops below altitude 10° 21:26:53 10° 63° (ENE) 2,505 4.5 -7.6°
Sets 21:30:00 0° 76° (ENE) 3,543 5.2 -7.9°
